Tracking 31027 objects as of 19-Jul-2025
HD Live streaming from Space Station
objects crossing your sky now

STARLINK-32127

Track STARLINK-32127 now!
10-day predictions
STARLINK-32127 is classified as:


NORAD ID: 60146
Int'l Code: 2024-120M
Perigee: 481.6 km
Apogee: 483.4 km
Inclination: 53.2 °
Period: 94.1 minutes
Semi major axis: 6853 km
RCS: Unknown
Launch date: June 27, 2024
Source: United States (US)
Launch site: AIR FORCE EASTERN TEST RANGE (AFETR)
Your satellite tracking list
SL-8 DEB
Track 1 satellite(s)




NASA's NSSDC Master Catalog

Two Line Element Set (TLE):
1 60146U 24120M   25199.62063421 -.00003614  00000-0 -11008-3 0  9995
2 60146  53.1621 326.8363 0001318  77.1035 283.0113 15.30166771 60409
Source of the keplerian elements: AFSPC